Savannah - Tybee Island Weather Center

Moon Phase Calendar



Online Cameras

 


      

Current Conditions in Chatham County
4/19/2024 8:08:22 PM

77°F
Feels Like 77
Clear
Humidity
71%
Pressure
29.94"
Wind
9.2 mph (SSE)
Dew Point
67°F
UV Index
0/10 (Low)
Visibility
6 mi

Hourly Forecast

Date & Time Fri, Apr 19
8:00 PM
Fri, Apr 19
9:00 PM
Fri, Apr 19
10:00 PM
Fri, Apr 19
11:00 PM
Sat, Apr 20
12:00 AM
Sat, Apr 20
1:00 AM
Sat, Apr 20
2:00 AM
Sat, Apr 20
3:00 AM
Sat, Apr 20
4:00 AM
Sat, Apr 20
5:00 AM
Sat, Apr 20
6:00 AM
Sat, Apr 20
7:00 AM
Sat, Apr 20
8:00 AM
Sat, Apr 20
9:00 AM
Sat, Apr 20
10:00 AM
Sat, Apr 20
11:00 AM
Sat, Apr 20
12:00 PM
Sat, Apr 20
1:00 PM
Sat, Apr 20
2:00 PM
Sat, Apr 20
3:00 PM
Sat, Apr 20
4:00 PM
Sat, Apr 20
5:00 PM
Sat, Apr 20
6:00 PM
Sat, Apr 20
7:00 PM
Sat, Apr 20
8:00 PM
Sat, Apr 20
9:00 PM
Sat, Apr 20
10:00 PM
Sat, Apr 20
11:00 PM
Sun, Apr 21
12:00 AM
Sun, Apr 21
1:00 AM
Sun, Apr 21
2:00 AM
Sun, Apr 21
3:00 AM
Sun, Apr 21
4:00 AM
Sun, Apr 21
5:00 AM
Sun, Apr 21
6:00 AM
Sun, Apr 21
7:00 AM
Sun, Apr 21
8:00 AM
Sun, Apr 21
9:00 AM
Sun, Apr 21
10:00 AM
Sun, Apr 21
11:00 AM
Sun, Apr 21
12:00 PM
Sun, Apr 21
1:00 PM
Sun, Apr 21
2:00 PM
Sun, Apr 21
3:00 PM
Sun, Apr 21
4:00 PM
Sun, Apr 21
5:00 PM
Sun, Apr 21
6:00 PM
Sun, Apr 21
7:00 PM
Condition
Clear

Clear

Clouds

Clouds

Clouds

Clouds

Clouds

Clouds

Clouds

Clouds

Clouds

Clouds

Clouds

Clouds

Clouds

Clouds

Clouds

Clouds

Clouds

Clouds

Clouds

Clouds

Clouds

Clouds

Rain

Rain

Rain

Rain

Clouds

Clouds

Clouds

Clouds

Clouds

Clouds

Clouds

Clouds

Clouds

Clouds

Rain

Clouds

Clouds

Clouds

Clouds

Rain

Rain

Rain

Rain

Rain
Temperature 77°F75°F74°F72°F71°F69°F68°F68°F67°F67°F67°F67°F70°F75°F79°F84°F88°F90°F90°F85°F83°F81°F80°F78°F76°F68°F65°F66°F66°F66°F66°F66°F65°F65°F64°F65°F66°F67°F67°F66°F73°F74°F74°F70°F65°F65°F58°F54°F
Feels Like 77°F76°F75°F73°F71°F69°F69°F68°F68°F67°F68°F68°F71°F76°F79°F86°F89°F91°F90°F87°F85°F83°F80°F79°F76°F68°F66°F67°F67°F66°F67°F67°F66°F66°F65°F65°F66°F68°F67°F66°F74°F74°F74°F70°F66°F65°F58°F54°F
Cloudiness 0%10%17%17%17%19%31%99%100%88%89%90%84%95%98%75%60%57%63%100%100%100%100%100%100%100%100%100%100%100%100%100%100%100%99%99%99%98%99%99%100%100%100%100%100%100%100%100%
Visibility 6 mi6 mi6 mi6 mi6 mi6 mi6 mi6 mi6 mi6 mi6 mi6 mi6 mi6 mi6 mi6 mi6 mi6 mi6 mi6 mi6 mi6 mi6 mi6 mi6 mi4 mi6 mi6 mi6 mi6 mi6 mi6 mi6 mi6 mi6 mi6 mi6 mi6 mi6 mi6 mi6 mi6 mi6 mi6 mi6 mi6 mi6 mi6 mi
Precipitation 0%0%0%0%0%0%0%0%0%0%0%0%0%0%0%0%0%0%0%0%0%0%0%0%20%100%100%100%80%80%80%0%0%0%0%0%0%0%20%0%0%0%2%56%66%60%60%74%
Humidity 71%74%78%80%82%85%86%87%88%89%90%89%81%70%62%52%45%41%39%50%57%63%64%69%73%91%96%96%93%93%94%96%98%99%99%99%95%90%91%93%73%70%69%74%82%78%87%94%
Dew Point 67°F67°F67°F66°F65°F64°F64°F64°F64°F64°F64°F64°F64°F65°F65°F65°F64°F64°F63°F64°F66°F67°F66°F67°F66°F65°F64°F65°F64°F64°F64°F65°F65°F64°F64°F64°F64°F64°F64°F64°F64°F63°F63°F62°F60°F57°F54°F53°F
Pressure 29.94"29.94"29.97"29.97"30"29.97"29.97"29.97"29.97"29.97"30"30"30"30.03"30.03"30.03"30.03"30"29.97"29.94"29.94"29.91"29.94"29.91"29.91"30"30"30.03"30"30"29.97"29.94"29.94"29.94"29.94"29.97"29.97"30"30"29.97"29.97"29.94"29.94"29.94"29.91"29.94"29.97"30"
Wind Speed 5.8 mph5 mph5.1 mph5.4 mph5.6 mph5.4 mph4.8 mph3.7 mph3.5 mph3.9 mph3.8 mph3.8 mph3.3 mph4.6 mph5.8 mph6.8 mph8 mph8.2 mph7.8 mph3.8 mph2.6 mph2.2 mph3.3 mph1.3 mph0.2 mph13.3 mph9 mph6.9 mph3.4 mph2 mph3.8 mph3.8 mph3.9 mph2.6 mph4.2 mph4.4 mph4.2 mph5.2 mph3.8 mph4.4 mph4.6 mph5.3 mph6.8 mph8.5 mph8.9 mph9.4 mph11.2 mph9.6 mph
Wind
Direction
165°
SSE
185°
S
186°
S
196°
SSW
199°
SSW
201°
SSW
208°
SSW
227°
SW
238°
WSW
249°
WSW
253°
WSW
267°
W
277°
W
285°
WNW
291°
WNW
289°
WNW
294°
WNW
294°
WNW
284°
WNW
273°
W
245°
WSW
216°
SW
240°
WSW
142°
SE
344°
NNW
236°
SW
174°
S
281°
W
315°
NW
277°
W
289°
WNW
326°
NW
328°
NNW
324°
NW
314°
NW
328°
NNW
325°
NW
308°
NW
318°
NW
321°
NW
286°
WNW
327°
NNW
341°
NNW
355°
N
355°
N
353°
N
347°
NNW

N

Daily Forecast

Date High Low Precip. Humidity
Today
Apr 19

Rain
90 °F
66 °F
26%
42%
Saturday
Apr 20

Rain
90 °F
65 °F
100%
41%
Sunday
Apr 21

Rain
74 °F
53 °F
80%
70%
Monday
Apr 22

Rain
55 °F
46 °F
100%
83%
Tuesday
Apr 23

Clear
71 °F
45 °F
0%
40%
Wednesday
Apr 24

Clear
80 °F
52 °F
0%
35%
Thursday
Apr 25

Clear
75 °F
54 °F
0%
47%
Friday
Apr 26

Rain
80 °F
60 °F
100%
52%
Saturday
Apr 27

Clouds
88 °F
66 °F
79%
29%
Sunday
Apr 28

Rain
85 °F
67 °F
65%
50%
Monday
Apr 29

Rain
84 °F
70 °F
20%
53%
Tuesday
Apr 30

Rain
89 °F
70 °F
97%
43%
Wednesday
May 1

Rain
92 °F
66 °F
100%
39%
Thursday
May 2

Clouds
86 °F
68 °F
15%
41%
Friday
May 3

Clouds
85 °F
67 °F
0%
45%
Saturday
May 4

Clouds
88 °F
67 °F
0%
42%

Temperature 8-14 Day Outlook



Precipitation 8-14 Day Outlook




Quick Links
Savannah - Tybee Island News
Savannah - Tybee Island Photos
Savannah - Tybee Island Videos




About Us
Contact Us
Site Map
Search Site
Advertise With Us
   
Savannah.USCoast.info
THE SAVANNAH - TYBEE ISLAND WEBSITE

Copyright 2024, Coastal Town
Privacy    |    Legal